Accueil
METAR-TAF:

METAR-TAF

Aéroports :

Meiringen, Suisse

latitude: 46-44-25N, longitude: 8-06-36E, altitude: 577 m

Observation

Le bulletin a été fait il y a 34 minutes, à 03:50 UTC
Vent 3 kt de est, variant entre est/nord-est et est/sud-est
Température 3°C
Humidité 100%
Pression 1021 hPa
Visibilité: 1900 m
brume

METAR: LSMM 220350Z AUTO 09003KT 060V120 1900NDV BR NCD 03/03 Q1021 RMK

Heure: 06:24 (04:24 UTC)


TAF: absent

Observations et prévisions météorologiques de plus de 4000 aéroports (messages METAR et TAF).

Les stations disponibles sont représentées par des disques jaunes et rouges sur la carte.

Passer la souris dessus pour voir le nom de la station.

Cliquer dessus pour voir les observations et prévisions météorologiques.

Pour changer de carte: cliquez sur les boutons verts avec une croix noire pour zoomer, sur le bouton vert avec un tiret pour effectuer un zoom arrière, ou sur les flèches vertes pour les cartes adjacentes.


METAR-TAF: